DateTimeUTC,F1_A11,F1_S11,BsB_S11,BsG_S11,BsR_S11,BbsB_S11,BbsG_S11,BbsR_S11,BaB_A11,BaG_A11,BaR_A11,Tu_S11,T_S11,Uu_S11,U_S11,P_S11,T1_A11
2021-04-12T16:00:00Z,00000200,20000000,,,,,,,-000.39,-000.22,0000.03,19.0,25.9,02.6,01.7,0666.0,31.1
2021-04-12T16:01:00Z,00000200,20000000,,,,,,,-000.09,0000.13,-000.13,19.0,26.0,02.6,01.7,0666.0,31.1
2021-04-12T16:02:00Z,00000200,20000000,,,,,,,0000.26,0000.02,0000.10,19.0,26.0,02.6,01.7,0666.0,31.1
2021-04-12T16:03:00Z,00000200,60000000,,,,,,,0000.85,0000.65,0000.70,19.0,26.0,02.6,01.7,0666.0,31.1
2021-04-12T16:04:00Z,00000200,40000000,0001.99,0001.45,0000.99,0000.43,0000.42,0000.05,0000.82,0000.71,0000.67,19.1,25.8,02.8,01.9,0666.8,31.1
2021-04-12T16:05:00Z,00000200,00000000,0001.98,0001.62,0000.88,0000.76,0000.20,0000.19,0001.23,0001.12,0000.59,19.1,25.7,02.9,01.9,0666.9,31.1
2021-04-12T16:06:00Z,00000200,00000000,0002.21,0001.95,0000.90,0000.03,0000.31,0000.15,0000.73,0000.82,0000.40,19.1,25.7,02.9,02.0,0666.9,31.1
2021-04-12T16:07:00Z,00000200,00000000,0003.04,0001.42,0000.80,0000.67,0000.27,0000.37,0000.90,0000.94,0001.04,19.1,25.7,03.0,02.0,0666.8,31.1
2021-04-12T16:08:00Z,00000200,00000000,0002.39,0001.53,0000.96,0000.71,0000.27,0000.19,0001.25,0000.61,0000.56,19.1,25.7,03.0,02.0,0666.9,31.1
2021-04-12T16:09:00Z,00000200,00000000,0002.64,0001.72,0000.97,-000.13,0000.51,0000.00,0000.41,0000.66,0000.02,19.1,25.7,03.1,02.1,0666.8,31.1
2021-04-12T16:10:00Z,00000200,00000000,0002.39,0001.82,0001.01,0000.30,0000.34,0000.26,0000.83,0000.85,0001.33,19.1,25.7,03.0,02.0,0666.8,31.1
2021-04-12T16:11:00Z,00000200,00000000,0002.33,0001.79,0001.12,-000.17,0000.11,0000.28,0001.09,0001.03,0000.36,19.1,25.7,03.1,02.1,0666.9,31.1
2021-04-12T16:12:00Z,00000200,00000000,0002.68,0002.01,0001.15,0000.56,0000.33,0000.30,0001.04,0000.88,0000.74,19.1,25.7,03.1,02.1,0666.8,31.1
2021-04-12T16:13:00Z,00000200,00000000,0002.44,0001.63,0000.85,0000.28,0000.38,0000.08,0000.82,0000.56,0000.65,19.1,25.7,03.1,02.1,0666.8,31.1
2021-04-12T16:14:00Z,00000200,00000000,0002.68,0001.74,0001.08,0000.20,0000.32,0000.32,0000.74,0001.01,0000.63,19.1,25.7,03.1,02.1,0666.8,31.1
2021-04-12T16:15:00Z,00000200,00000000,0002.18,0001.67,0001.29,0000.28,0000.38,0000.11,0001.20,0000.74,0000.76,19.1,25.7,03.1,02.1,0666.7,31.1
2021-04-12T16:16:00Z,00000200,00000000,0002.63,0001.61,0001.04,0000.06,0000.29,0000.28,0000.71,0000.86,0000.19,19.1,25.7,03.1,02.1,0666.7,31.1
2021-04-12T16:17:00Z,00000200,00000000,0002.32,0002.02,0000.97,0000.17,0000.59,0000.15,0000.90,0001.19,0001.01,19.1,25.7,03.1,02.1,0666.7,31.1
2021-04-12T16:18:00Z,00000200,00000000,0003.51,0002.10,0001.11,0000.25,0000.30,0000.20,0000.52,0000.26,0000.11,19.1,25.6,03.1,02.1,0666.6,31.1
2021-04-12T16:19:00Z,00000200,00000000,0002.66,0001.99,0001.29,0000.11,0000.47,0000.36,0001.18,0000.97,0001.01,19.1,25.6,03.1,02.1,0666.6,31.1
2021-04-12T16:20:00Z,00000200,00000000,0002.67,0001.73,0001.27,0000.62,0000.38,0000.19,0000.76,0000.59,0000.41,19.1,25.6,03.1,02.1,0666.6,31.1
2021-04-12T16:21:00Z,00000200,00000000,0002.85,0001.63,0001.16,-000.39,0000.37,0000.32,0000.89,0000.67,0000.52,19.1,25.6,03.1,02.1,0666.7,31.1
2021-04-12T16:22:00Z,00000200,00000000,0002.87,0001.65,0001.33,-000.01,0000.30,0000.32,0000.97,0001.13,0000.73,19.1,25.6,03.1,02.1,0666.6,31.1
2021-04-12T16:23:00Z,00000200,00000000,0002.39,0001.85,0001.02,0000.59,0000.23,0000.10,0000.98,0000.65,0000.37,19.1,25.6,03.1,02.1,0666.6,31.1
2021-04-12T16:24:00Z,00000200,00000000,0003.62,0001.84,0001.57,0000.13,0000.49,0000.41,0001.05,0000.86,0000.73,19.1,25.6,03.1,02.1,0666.6,31.1
2021-04-12T16:25:00Z,00000200,00000000,0003.41,0001.96,0001.08,0000.13,0000.06,0000.31,0000.88,0001.10,0001.02,19.1,25.6,03.1,02.1,0666.5,31.1
2021-04-12T16:26:00Z,00000200,00000000,0002.74,0001.73,0001.17,-000.03,0000.47,0000.04,0001.56,0000.88,0000.69,19.1,25.6,03.1,02.1,0666.6,31.1
2021-04-12T16:27:00Z,00000200,00000000,0002.38,0001.99,0001.04,0000.58,0000.40,0000.24,0000.59,0000.52,0000.50,19.1,25.6,03.1,02.1,0666.6,31.1
2021-04-12T16:28:00Z,00000200,00000000,0001.90,0001.73,0001.28,0000.28,0000.38,0000.59,0000.55,0001.01,0000.66,19.1,25.6,03.1,02.1,0666.5,31.1
2021-04-12T16:29:00Z,00000200,00000000,0002.55,0002.06,0000.91,0000.16,0000.37,0000.52,0001.11,0001.08,0000.90,19.1,25.6,03.2,02.2,0666.5,31.1
2021-04-12T16:30:00Z,00000200,00000000,0002.96,0001.80,0001.36,0000.67,0000.18,0000.19,0001.32,0000.78,0000.42,19.1,25.6,03.2,02.2,0666.5,31.1
2021-04-12T16:31:00Z,00000200,00000000,0001.91,0001.81,0001.15,0000.05,0000.41,0000.41,0001.09,0001.16,0000.73,19.1,25.6,03.2,02.2,0666.6,31.1
2021-04-12T16:32:00Z,00000200,00000000,0002.80,0001.53,0001.27,0000.16,0000.70,0000.12,0000.95,0001.12,0000.79,19.1,25.6,03.3,02.2,0666.5,31.1
2021-04-12T16:33:00Z,00000200,00000000,0002.82,0002.12,0001.10,0000.18,0000.45,0000.16,0000.35,0000.32,0000.36,19.1,25.6,03.3,02.2,0666.5,31.1
2021-04-12T16:34:00Z,00000200,00000000,0002.86,0001.60,0001.12,0000.55,0000.15,0000.23,0000.96,0000.65,0000.63,19.1,25.5,03.2,02.2,0666.5,31.1
2021-04-12T16:35:00Z,00000200,00000000,0002.14,0001.68,0001.35,0000.12,0000.06,0000.62,0000.67,0000.62,0000.52,19.1,25.6,03.2,02.2,0666.5,31.1
2021-04-12T16:36:00Z,00000200,00000000,0003.29,0001.92,0000.97,0000.25,0000.37,-000.12,0001.16,0001.09,0000.86,19.1,25.6,03.2,02.2,0666.4,31.1
2021-04-12T16:37:00Z,00000200,00000000,0002.58,0002.11,0001.03,0000.30,0000.16,0000.47,0001.03,0000.45,0000.30,19.1,25.6,03.3,02.2,0666.5,31.1
2021-04-12T16:38:00Z,00000200,00000000,0002.93,0002.02,0000.96,0000.65,0000.48,0000.13,0001.01,0001.46,0000.97,19.1,25.6,03.2,02.1,0666.5,31.1
2021-04-12T16:39:00Z,00000200,00000000,0001.81,0002.03,0001.20,0000.47,0000.13,0000.19,0000.70,0000.79,0000.08,19.1,25.6,03.2,02.2,0666.5,31.1
2021-04-12T16:40:00Z,00000200,00000000,0002.48,0001.59,0001.03,0000.43,0000.41,0000.29,0000.97,0000.71,0001.11,19.1,25.5,03.2,02.2,0666.5,31.1
2021-04-12T16:41:00Z,00000200,00000000,0002.33,0001.98,0001.16,0000.25,0000.38,0000.45,0001.17,0000.77,0000.68,19.0,25.5,03.3,02.2,0666.4,31.1
2021-04-12T16:42:00Z,00000200,00000000,0002.60,0001.80,0000.96,0000.56,0000.49,-000.11,0000.63,0000.63,0000.53,19.0,25.5,03.4,02.3,0666.3,31.1
2021-04-12T16:43:00Z,00000200,00000000,0002.74,0001.78,0000.96,0000.59,0000.28,0000.09,0000.72,0000.66,0000.25,19.0,25.5,03.3,02.2,0666.2,31.1
2021-04-12T16:44:00Z,00000200,00000000,0002.83,0001.79,0001.18,0000.47,0000.37,0000.09,0001.14,0001.13,0001.09,19.1,25.5,03.4,02.3,0666.3,31.1
2021-04-12T16:45:00Z,00000200,00000000,0002.96,0001.59,0000.90,0000.60,0000.37,0000.18,0000.96,0000.96,0000.39,19.0,25.5,03.3,02.3,0666.3,31.1
2021-04-12T16:46:00Z,00000200,00000000,0002.53,0001.58,0000.98,0000.43,0000.44,0000.19,0000.90,0000.46,0000.56,19.0,25.5,03.4,02.3,0666.3,31.1
2021-04-12T16:47:00Z,00000200,00000000,0002.25,0001.76,0000.67,0000.10,0000.44,0000.09,0000.59,0000.51,0000.30,19.0,25.5,03.4,02.3,0666.4,31.1
2021-04-12T16:48:00Z,00000200,00000000,0002.34,0001.75,0001.14,-000.19,0000.29,0000.05,0001.18,0001.21,0000.88,19.0,25.5,03.5,02.3,0666.3,31.1
2021-04-12T16:49:00Z,00000200,00000000,0002.26,0001.63,0000.90,0000.46,0000.49,0000.22,0000.86,0001.09,0000.71,19.0,25.5,03.4,02.3,0666.2,31.1
2021-04-12T16:50:00Z,00000200,00000000,0002.61,0001.76,0001.16,0000.02,0000.50,0000.45,0000.48,0000.33,0000.44,19.0,25.5,03.3,02.2,0666.2,31.1
2021-04-12T16:51:00Z,00000200,00000000,0002.79,0001.37,0000.79,0000.11,0000.36,0000.16,0000.96,0000.88,0000.68,19.0,25.5,03.4,02.3,0666.2,31.1
2021-04-12T16:52:00Z,00000200,00000000,0002.85,0001.84,0001.08,0000.17,0000.26,0000.16,0000.80,0001.11,0000.52,19.0,25.5,03.2,02.2,0666.2,31.1
2021-04-12T16:53:00Z,00000200,00000000,0002.51,0001.83,0001.01,0000.44,0000.49,0000.23,0000.88,0000.47,0000.51,19.0,25.5,03.4,02.3,0666.2,31.1
2021-04-12T16:54:00Z,00000200,00000000,0002.84,0001.82,0000.95,0000.37,0000.73,0000.23,0001.12,0000.77,0000.76,19.0,25.5,03.4,02.3,0666.1,31.1
2021-04-12T16:55:00Z,00000200,00000000,0002.95,0001.76,0001.02,0000.49,0000.30,-000.09,0000.64,0000.83,0000.84,19.0,25.5,03.4,02.3,0666.1,31.1
2021-04-12T16:56:00Z,00000200,00000000,0002.14,0001.81,0001.17,-000.02,0000.18,0000.16,0000.37,0000.38,0000.15,19.0,25.5,03.4,02.3,0666.1,31.1
2021-04-12T16:57:00Z,00000200,40000000,,,,,,,0000.34,0000.07,0000.32,19.0,25.5,03.6,02.4,0666.2,31.1
2021-04-12T16:58:00Z,00000200,60000000,,,,,,,-000.26,-000.09,0000.02,18.8,25.6,03.2,02.1,0665.1,31.1
2021-04-12T16:59:00Z,00000200,20000000,,,,,,,-000.17,0000.33,-000.17,18.8,25.7,03.2,02.1,0665.0,31.1
